Location: Recife
(8.0585°S, 34.8848°W)
Time: 13:08:01
(UTC-03:00)

Transit 4A - Pass Details

Date: 22 April 2026
Orbit: 861 x 980 km, 66.8° (Epoch: 12 May)

Event Time Altitude Azimuth Distance (km) Brightness Sun altitude
Rises 22:10:14 0° 4° (N) 3,649 - -72.8°
Reaches altitude 10° 22:13:12 10° 16° (NNE) 2,695 - -73.5°
Maximum altitude 22:18:23 27° 72° (ENE) 1,743 - -74.7°
Drops below altitude 10° 22:23:28 10° 127° (SE) 2,652 - -75.9°
Sets 22:26:21 0° 139° (SE) 3,579 - -76.6°
